Tracking 28790 objects as of 19-Apr-2024
HD Live streaming from Space Station
objects crossing your sky now

IRIDIUM 33 DEB

Track IRIDIUM 33 DEB now!
10-day predictions


NORAD ID: 35618
Int'l Code: 1997-051QQ
Perigee: 719.2 km
Apogee: 761.8 km
Inclination: 86.3 °
Period: 99.5 minutes
Semi major axis: 7111 km
RCS: 0.0121 m2 (small)
Launch date: September 14, 1997
Source: United States (US)
Launch site: TYURATAM MISSILE AND SPACE COMPLEX (TTMTR)

Note: This is SATELLITE DEBRIS
Your satellite tracking list
Your tracking list is empty




NASA's NSSDC Master Catalog

Two Line Element Set (TLE):
1 35618U 97051QQ  24109.67312520  .00006656  00000-0  17905-2 0  9994
2 35618  86.3389 256.1562 0029934 231.8348 128.0158 14.47645814784722
Source of the keplerian elements: AFSPC